Roanoke, VA

3:35 PM EST on February 25, 2018 (GMT -0500)
Roanoke Regional-Woodrum

Weather History for KROA - April, 2014

Change the Weather History Date:

Tuesday, April 22, 2014

  Actual Average Record
Temperature  
Mean Temperature 65 °F 58 °F  
Max Temperature 75 °F 70 °F 92 °F (1985)
Min Temperature 55 °F 47 °F 30 °F (1953)
Degree Days  
Heating Degree Days 0 8  
Month to date heating degree days 203 223  
Since 1 July heating degree days 4255 3980  
Cooling Degree Days 0 1  
Month to date cooling degree days 8 14  
Year to date cooling degree days 8 19  
Growing Degree Days 15 (Base 50)    
Moisture  
Dew Point 45 °F    
Average Humidity 47    
Maximum Humidity 60    
Minimum Humidity 34    
Precipitation  
Precipitation 0.00 in 0.12 in 1.34 in (1927)
Month to date precipitation 2.18 2.47  
Year to date precipitation 11.22 11.74  
Snow  
Snow 0.00 in - - ()
Month to date snowfall 0.0  
Since 1 July snowfall 28.0  
Snow Depth 0.00 in    
Sea Level Pressure  
Sea Level Pressure 29.76 in    
Wind  
Wind Speed 10 mph (West)    
Max Wind Speed 23 mph    
Max Gust Speed 30 mph    
Visibility 10 miles    
Events      
T = Trace of Precipitation, MM = Missing Value Source: NWS Daily Summary

Daily Weather History Graph

Daily Weather History Graph

Search for Another Location

Airport or City:

Trip Planner

Search our weather history database for the weather conditions in past years. The results will help you decide how hot, cold, wet, or windy it might be!

Date:

Astronomy

Apr. 22, 2014 Rise Set
Actual Time 6:35 AM EDT 8:01 PM EDT
Civil Twilight 6:08 AM EDT 8:28 PM EDT
Nautical Twilight 5:35 AM EDT 9:01 PM EDT
Astronomical Twilight 5:01 AM EDT 9:36 PM EDT
Moon 2:14 AM EDT (4/22) 1:09 PM EDT (4/22)
Length of Visible Light 14h 20m
Length of Day
13h 25m
Last Quarter, 46% of the Moon is Illuminated
Apr 22
Last Quarter
Apr 29
New
May 6
First Quarter
May 14
Full
May 21
Last Quarter

Hourly Weather History & Observations

Time (EDT) Temp. Dew Point Humidity Pressure Visibility Wind Dir Wind Speed Gust Speed Precip Events Conditions
12:54 AM 63.0 °F 34.0 °F 34% 29.88 in 10.0 mi Calm Calm - N/A   Overcast
1:54 AM 57.9 °F 37.9 °F 47% 29.87 in 10.0 mi Calm Calm - N/A   Overcast
2:54 AM 59.0 °F 37.4 °F 45% 29.86 in 10.0 mi Calm Calm - N/A   Mostly Cloudy
3:54 AM 57.9 °F 39.0 °F 49% 29.83 in 10.0 mi North 5.8 mph - N/A   Mostly Cloudy
4:54 AM 61.0 °F 39.9 °F 46% 29.82 in 10.0 mi NNW 4.6 mph - N/A   Mostly Cloudy
5:54 AM 59.0 °F 41.0 °F 51% 29.82 in 10.0 mi NNW 4.6 mph - N/A   Scattered Clouds
6:54 AM 59.0 °F 43.0 °F 55% 29.80 in 10.0 mi West 8.1 mph - N/A   Scattered Clouds
7:54 AM 61.0 °F 43.0 °F 52% 29.81 in 10.0 mi West 10.4 mph - N/A   Mostly Cloudy
8:54 AM 63.0 °F 45.0 °F 52% 29.80 in 10.0 mi SW 5.8 mph - N/A   Mostly Cloudy
9:54 AM 66.9 °F 45.0 °F 45% 29.78 in 10.0 mi West 10.4 mph - N/A   Overcast
10:54 AM 70.0 °F 46.0 °F 42% 29.76 in 10.0 mi SW 9.2 mph - N/A   Overcast
11:54 AM 73.9 °F 46.9 °F 38% 29.74 in 10.0 mi SW 11.5 mph - N/A   Overcast
12:54 PM 73.9 °F 48.0 °F 40% 29.73 in 10.0 mi West 15.0 mph 29.9 mph N/A   Mostly Cloudy
1:54 PM 73.0 °F 50.0 °F 44% 29.73 in 10.0 mi West 15.0 mph 25.3 mph N/A   Mostly Cloudy
2:54 PM 71.1 °F 48.9 °F 45% 29.72 in 10.0 mi West 13.8 mph 24.2 mph N/A   Overcast
3:54 PM 72.0 °F 50.0 °F 46% 29.70 in 10.0 mi West 15.0 mph 27.6 mph N/A   Mostly Cloudy
4:54 PM 71.1 °F 50.0 °F 47% 29.69 in 10.0 mi West 15.0 mph 20.7 mph N/A   Mostly Cloudy
5:54 PM 71.1 °F 50.0 °F 47% 29.68 in 10.0 mi WSW 12.7 mph 18.4 mph N/A   Mostly Cloudy
6:54 PM 70.0 °F 48.9 °F 47% 29.66 in 10.0 mi WSW 9.2 mph - N/A   Mostly Cloudy
7:54 PM 69.1 °F 50.0 °F 51% 29.66 in 10.0 mi WSW 10.4 mph - N/A   Scattered Clouds
8:54 PM 66.9 °F 51.1 °F 57% 29.68 in 10.0 mi West 8.1 mph - N/A   Mostly Cloudy
9:54 PM 64.9 °F 48.9 °F 56% 29.69 in 10.0 mi West 5.8 mph - N/A   Partly Cloudy
10:54 PM 64.9 °F 50.0 °F 58% 29.69 in 10.0 mi Variable 5.8 mph - N/A   Scattered Clouds
11:54 PM 66.0 °F 42.1 °F 42% 29.71 in 10.0 mi NW 15.0 mph - N/A   Mostly Cloudy